owner,sensor,date,latitude,longitude,vertical_datum,wind_speed,wind_to_direction,wind_speed_of_gust,qcFlag 
TABS,ioos:station:wmo:42046:1,2002-10-01T00:09:00Z,27.8903,-94.0367,4.0,6.603400639,156.8130672,8.85,'11111222,11111222,11111222' 
TABS,ioos:station:wmo:42046:1,2002-10-01T00:39:00Z,27.8903,-94.0367,4.0,4.751473456,166.4904381,6.46,'11111222,11111222,11111222' 
TABS,ioos:station:wmo:42046:1,2002-10-01T02:09:00Z,27.8903,-94.0367,4.0,5.532449729,151.0261457,7.89,'11111222,11111222,11111222' 
TABS,ioos:station:wmo:42046:1,2002-10-01T03:09:00Z,27.8903,-94.0367,4.0,5.151359044,161.6708215,7.31,'11111222,11111222,11111222' 
TABS,ioos:station:wmo:42046:1,2002-10-01T04:39:00Z,27.8903,-94.0367,4.0,6.382640519,140.148758,9.03,'11111222,11111222,11111222' 
TABS,ioos:station:wmo:42046:1,2002-10-01T05:09:00Z,27.8903,-94.0367,4.0,6.164235557,141.5872674,9.18,'11111222,11111222,11111222' 
TABS,ioos:station:wmo:42046:1,2002-10-01T08:09:00Z,27.8903,-94.0367,4.0,6.155079203,145.4582087,8.82,'11111222,11111222,11111222' 
TABS,ioos:station:wmo:42046:1,2002-10-01T09:39:00Z,27.8903,-94.0367,4.0,6.158912242,144.1165534,8.19,'11111222,11111222,11111222' 
TABS,ioos:station:wmo:42046:1,2002-10-01T11:39:00Z,27.8903,-94.0367,4.0,6.786199231,120.9496255,8.09,'11111222,11111222,11111222' 
TABS,ioos:station:wmo:42046:1,2002-10-01T19:09:00Z,27.8903,-94.0367,4.0,9.369231559,86.32788757,11.01,'11111222,11111222,11111222' 
TABS,ioos:station:wmo:42046:1,2002-10-01T20:39:00Z,27.8903,-94.0367,4.0,8.370149342,89.65731526,9.81,'11111222,11111222,11111222' 
TABS,ioos:station:wmo:42046:1,2002-10-01T21:09:00Z,27.8903,-94.0367,4.0,8.312412406,85.79119917,9.89,'11111222,11111222,11111222' 
TABS,ioos:station:wmo:42046:1,2002-10-01T22:09:00Z,27.8903,-94.0367,4.0,8.729129395,78.70254559,10.43,'11111222,11111222,11111222' 
TABS,ioos:station:wmo:42046:1,2002-10-02T00:09:00Z,27.8903,-94.0367,4.0,8.084862398,95.32315918,9.87,'11111222,11111222,11111222' 
TABS,ioos:station:wmo:42046:1,2002-10-02T01:09:00Z,27.8903,-94.0367,4.0,8.680466577,90.5944789,10.82,'11111222,11111222,11111222' 
TABS,ioos:station:wmo:42046:1,2002-10-02T01:39:00Z,27.8903,-94.0367,4.0,9.388253299,96.9134678,11.54,'11111222,11111222,11111222' 
TABS,ioos:station:wmo:42046:1,2002-10-02T02:09:00Z,27.8903,-94.0367,4.0,8.553186541,97.99787569,11.14,'11111222,11111222,11111222' 
TABS,ioos:station:wmo:42046:1,2002-10-02T02:39:00Z,27.8903,-94.0367,4.0,8.295082881,93.45610655,10.76,'11111222,11111222,11111222' 
TABS,ioos:station:wmo:42046:1,2002-10-02T03:39:00Z,27.8903,-94.0367,4.0,8.207393009,94.68288801,10.84,'11111222,11111222,11111222' 
TABS,ioos:station:wmo:42046:1,2002-10-02T05:09:00Z,27.8903,-94.0367,4.0,8.479245249,103.6433038,11.75,'11111222,11111222,11111222' 
TABS,ioos:station:wmo:42046:1,2002-10-02T06:09:00Z,27.8903,-94.0367,4.0,9.747132912,107.6174041,12.9,'11111222,11111222,11111222' 
TABS,ioos:station:wmo:42046:1,2002-10-02T08:39:00Z,27.8903,-94.0367,4.0,7.771364102,111.911305,11.19,'11111222,11111222,11111222' 
TABS,ioos:station:wmo:42046:1,2002-10-02T09:39:00Z,27.8903,-94.0367,4.0,8.004879762,109.4086478,10.71,'11111222,11111222,11111222' 
TABS,ioos:station:wmo:42046:1,2002-10-02T10:09:00Z,27.8903,-94.0367,4.0,8.31221992,109.6124688,11.14,'11111222,11111222,11111222' 
TABS,ioos:station:wmo:42046:1,2002-10-02T11:09:00Z,27.8903,-94.0367,4.0,8.014948534,113.1426378,10.46,'11111222,11111222,11111222' 
TABS,ioos:station:wmo:42046:1,2002-10-02T12:39:00Z,27.8903,-94.0367,4.0,8.035801142,107.826541,10.97,'11111222,11111222,11111222' 
TABS,ioos:station:wmo:42046:1,2002-10-02T13:09:00Z,27.8903,-94.0367,4.0,7.579564631,103.5049432,10.97,'11111222,11111222,11111222' 
TABS,ioos:station:wmo:42046:1,2002-10-02T13:39:00Z,27.8903,-94.0367,4.0,8.221246864,97.54899265,11.08,'11111222,11111222,11111222' 
TABS,ioos:station:wmo:42046:1,2002-10-02T14:09:00Z,27.8903,-94.0367,4.0,8.590488927,96.2153858,11.69,'11111222,11111222,11111222' 
TABS,ioos:station:wmo:42046:1,2002-10-02T14:39:00Z,27.8903,-94.0367,4.0,7.698110158,101.9963821,10.24,'11111222,11111222,11111222' 
TABS,ioos:station:wmo:42046:1,2002-10-02T18:09:00Z,27.8903,-94.0367,4.0,8.02611986,76.67325096,11.39,'11111222,11111222,11111222' 
TABS,ioos:station:wmo:42046:1,2002-10-03T00:09:00Z,27.8903,-94.0367,4.0,11.98179035,51.06354183,15.51,'11111222,11111222,11111222' 
TABS,ioos:station:wmo:42046:1,2002-10-03T03:09:00Z,27.8903,-94.0367,4.0,9.263287753,41.10415821,14.0,'11111222,11111222,11111222' 
TABS,ioos:station:wmo:42046:1,2002-10-03T04:09:00Z,27.8903,-94.0367,4.0,9.736826999,25.74895638,13.85,'11111222,11111222,11111222' 
TABS,ioos:station:wmo:42046:1,2002-10-03T08:39:00Z,27.8903,-94.0367,4.0,9.986415773,353.9067116,15.97,'11111222,11111222,11111222' 
TABS,ioos:station:wmo:42046:1,2002-10-03T09:09:00Z,27.8903,-94.0367,4.0,10.33837995,355.0612672,15.64,'11111222,11111222,11111222' 
TABS,ioos:station:wmo:42046:1,2002-10-03T09:39:00Z,27.8903,-94.0367,4.0,11.01488538,333.5278506,17.39,'11111222,11111222,11111222' 
TABS,ioos:station:wmo:42046:1,2002-10-03T11:09:00Z,27.8903,-94.0367,4.0,11.94923429,308.20292,19.66,'11111222,11111222,11111222' 
TABS,ioos:station:wmo:42046:1,2002-10-03T15:09:00Z,27.8903,-94.0367,4.0,10.30198525,289.6837073,16.69,'11111222,11111222,11111222' 
TABS,ioos:station:wmo:42046:1,2002-10-03T15:39:00Z,27.8903,-94.0367,4.0,9.791588227,289.3231391,16.16,'11111222,11111222,11111222' 
TABS,ioos:station:wmo:42046:1,2002-10-03T18:39:00Z,27.8903,-94.0367,4.0,8.459905437,262.1189433,14.42,'11111222,11111222,11111222' 
TABS,ioos:station:wmo:42046:1,2002-10-03T20:39:00Z,27.8903,-94.0367,4.0,8.814743331,243.0861833,15.34,'11111222,11111222,11111222' 
TABS,ioos:station:wmo:42046:1,2002-10-03T23:39:00Z,27.8903,-94.0367,4.0,7.247544412,245.9813791,12.11,'11111222,11111222,11111222' 
TABS,ioos:station:wmo:42046:1,2002-10-04T00:39:00Z,27.8903,-94.0367,4.0,7.868068378,245.6826625,12.59,'11111222,11111222,11111222' 
TABS,ioos:station:wmo:42046:1,2002-10-04T02:09:00Z,27.8903,-94.0367,4.0,6.986973594,230.2260204,10.8,'11111222,11111222,11111222' 
TABS,ioos:station:wmo:42046:1,2002-10-04T02:39:00Z,27.8903,-94.0367,4.0,7.165507658,209.606172,11.03,'11111222,11111222,11111222' 
TABS,ioos:station:wmo:42046:1,2002-10-04T03:09:00Z,27.8903,-94.0367,4.0,7.56429111,205.2778736,10.58,'11111222,11111222,11111222' 
TABS,ioos:station:wmo:42046:1,2002-10-04T06:39:00Z,27.8903,-94.0367,4.0,7.38523527,194.1869512,10.14,'11111222,11111222,11111222' 
TABS,ioos:station:wmo:42046:1,2002-10-04T07:09:00Z,27.8903,-94.0367,4.0,6.833447154,206.4152113,9.85,'11111222,11111222,11111222' 
TABS,ioos:station:wmo:42046:1,2002-10-04T08:39:00Z,27.8903,-94.0367,4.0,7.657937059,203.5524191,11.02,'11111222,11111222,11111222' 
TABS,ioos:station:wmo:42046:1,2002-10-04T09:39:00Z,27.8903,-94.0367,4.0,6.464093131,211.5263437,9.94,'11111222,11111222,11111222' 
TABS,ioos:station:wmo:42046:1,2002-10-04T10:09:00Z,27.8903,-94.0367,4.0,6.520996856,212.9834831,8.95,'11111222,11111222,11111222' 
TABS,ioos:station:wmo:42046:1,2002-10-04T15:09:00Z,27.8903,-94.0367,4.0,6.635374895,201.1120661,9.27,'11111222,11111222,11111222' 
TABS,ioos:station:wmo:42046:1,2002-10-04T17:39:00Z,27.8903,-94.0367,4.0,5.398814685,210.7454878,8.18,'11111222,11111222,11111222' 
TABS,ioos:station:wmo:42046:1,2002-10-04T20:39:00Z,27.8903,-94.0367,4.0,3.358764654,225.1207275,6.5,'11111222,11111222,11111222' 
TABS,ioos:station:wmo:42046:1,2002-10-04T23:09:00Z,27.8903,-94.0367,4.0,1.188107739,233.9018004,5.86,'11111222,11111222,11111222' 
TABS,ioos:station:wmo:42046:1,2002-10-05T00:39:00Z,27.8903,-94.0367,4.0,3.045931713,176.4238844,6.39,'11111222,11111222,11111222' 
TABS,ioos:station:wmo:42046:1,2002-10-05T02:09:00Z,27.8903,-94.0367,4.0,5.858668791,152.9978586,8.95,'11111222,11111222,11111222' 
TABS,ioos:station:wmo:42046:1,2002-10-05T02:39:00Z,27.8903,-94.0367,4.0,4.994897396,156.7715503,7.72,'11111222,11111222,11111222' 
TABS,ioos:station:wmo:42046:1,2002-10-05T03:39:00Z,27.8903,-94.0367,4.0,3.899653831,162.5410487,7.53,'11111222,11111222,11111222' 
TABS,ioos:station:wmo:42046:1,2002-10-05T04:39:00Z,27.8903,-94.0367,4.0,3.687817783,167.471432,7.02,'11111222,11111222,11111222' 
TABS,ioos:station:wmo:42046:1,2002-10-05T05:39:00Z,27.8903,-94.0367,4.0,6.692159592,128.3258622,8.71,'11111222,11111222,11111222' 
TABS,ioos:station:wmo:42046:1,2002-10-05T06:39:00Z,27.8903,-94.0367,4.0,6.938018449,133.8907528,8.88,'11111222,11111222,11111222' 
TABS,ioos:station:wmo:42046:1,2002-10-05T07:09:00Z,27.8903,-94.0367,4.0,6.313731068,132.4327244,8.25,'11111222,11111222,11111222' 
TABS,ioos:station:wmo:42046:1,2002-10-05T08:09:00Z,27.8903,-94.0367,4.0,5.411330705,144.4010737,7.21,'11111222,11111222,11111222' 
TABS,ioos:station:wmo:42046:1,2002-10-05T08:39:00Z,27.8903,-94.0367,4.0,5.559082658,152.9281935,6.88,'11111222,11111222,11111222' 
TABS,ioos:station:wmo:42046:1,2002-10-05T09:09:00Z,27.8903,-94.0367,4.0,5.570682184,151.5950304,7.11,'11111222,11111222,11111222' 
TABS,ioos:station:wmo:42046:1,2002-10-05T13:09:00Z,27.8903,-94.0367,4.0,5.13280625,162.3066118,6.66,'11111222,11111222,11111222' 
TABS,ioos:station:wmo:42046:1,2002-10-05T13:39:00Z,27.8903,-94.0367,4.0,4.604052563,174.1410363,6.23,'11111222,11111222,11111222' 
TABS,ioos:station:wmo:42046:1,2002-10-05T14:09:00Z,27.8903,-94.0367,4.0,4.533398284,163.2041608,6.01,'11111222,11111222,11111222' 
TABS,ioos:station:wmo:42046:1,2002-10-05T14:39:00Z,27.8903,-94.0367,4.0,4.044774407,150.2026888,6.13,'11111222,11111222,11111222' 
TABS,ioos:station:wmo:42046:1,2002-10-05T15:09:00Z,27.8903,-94.0367,4.0,3.128609915,137.5911116,4.46,'11111222,11111222,11111222' 
TABS,ioos:station:wmo:42046:1,2002-10-05T16:39:00Z,27.8903,-94.0367,4.0,2.020742438,12.86686359,4.57,'11111222,11111222,11111222' 
TABS,ioos:station:wmo:42046:1,2002-10-05T18:39:00Z,27.8903,-94.0367,4.0,2.576606295,146.5569183,6.24,'11111222,11111222,11111222' 
TABS,ioos:station:wmo:42046:1,2002-10-05T21:09:00Z,27.8903,-94.0367,4.0,3.672397037,126.0277101,6.89,'11111222,11111222,11111222' 
TABS,ioos:station:wmo:42046:1,2002-10-05T21:39:00Z,27.8903,-94.0367,4.0,5.367951192,109.8193364,7.67,'11111222,11111222,11111222' 
TABS,ioos:station:wmo:42046:1,2002-10-05T22:39:00Z,27.8903,-94.0367,4.0,6.332282369,91.53879675,8.79,'11111222,11111222,11111222' 
TABS,ioos:station:wmo:42046:1,2002-10-05T23:39:00Z,27.8903,-94.0367,4.0,4.775950167,94.6843497,7.63,'11111222,11111222,11111222' 
TABS,ioos:station:wmo:42046:1,2002-10-06T00:09:00Z,27.8903,-94.0367,4.0,2.444688119,107.6200491,5.9,'11111222,11111222,11111222' 
TABS,ioos:station:wmo:42046:1,2002-10-06T03:09:00Z,27.8903,-94.0367,4.0,7.190027816,127.0296079,9.45,'11111222,11111222,11111222' 
TABS,ioos:station:wmo:42046:1,2002-10-06T03:39:00Z,27.8903,-94.0367,4.0,8.31016847,106.9307622,11.04,'11111222,11111222,11111222' 
TABS,ioos:station:wmo:42046:1,2002-10-06T04:09:00Z,27.8903,-94.0367,4.0,7.719922279,105.4768221,9.93,'11111222,11111222,11111222' 
TABS,ioos:station:wmo:42046:1,2002-10-06T07:09:00Z,27.8903,-94.0367,4.0,7.659588762,144.2973989,10.16,'11111222,11111222,11111222' 
TABS,ioos:station:wmo:42046:1,2002-10-06T07:39:00Z,27.8903,-94.0367,4.0,8.075270893,134.6992905,10.56,'11111222,11111222,11111222' 
TABS,ioos:station:wmo:42046:1,2002-10-06T09:09:00Z,27.8903,-94.0367,4.0,8.908389304,131.9062649,11.29,'11111222,11111222,11111222' 
TABS,ioos:station:wmo:42046:1,2002-10-06T09:39:00Z,27.8903,-94.0367,4.0,8.578257399,134.1029305,10.98,'11111222,11111222,11111222' 
TABS,ioos:station:wmo:42046:1,2002-10-06T10:09:00Z,27.8903,-94.0367,4.0,8.108964176,129.2449931,10.48,'11111222,11111222,11111222' 
TABS,ioos:station:wmo:42046:1,2002-10-06T12:09:00Z,27.8903,-94.0367,4.0,7.292852665,145.2206679,9.64,'11111222,11111222,11111222' 
TABS,ioos:station:wmo:42046:1,2002-10-06T22:09:00Z,27.8903,-94.0367,4.0,3.280015244,306.6951301,4.59,'11111222,11111222,11111222' 
TABS,ioos:station:wmo:42046:1,2002-10-06T23:39:00Z,27.8903,-94.0367,4.0,6.116289725,30.12803833,8.36,'11111222,11111222,11111222' 
TABS,ioos:station:wmo:42046:1,2002-10-07T00:09:00Z,27.8903,-94.0367,4.0,6.389053138,39.92008833,7.87,'11111222,11111222,11111222' 
TABS,ioos:station:wmo:42046:1,2002-10-07T02:09:00Z,27.8903,-94.0367,4.0,8.065543999,69.00291884,9.83,'11111222,11111222,11111222' 
TABS,ioos:station:wmo:42046:1,2002-10-07T02:39:00Z,27.8903,-94.0367,4.0,8.154440508,76.52574071,10.26,'11111222,11111222,11111222' 
TABS,ioos:station:wmo:42046:1,2002-10-07T03:09:00Z,27.8903,-94.0367,4.0,7.972578002,84.81817519,10.14,'11111222,11111222,11111222' 
TABS,ioos:station:wmo:42046:1,2002-10-07T03:39:00Z,27.8903,-94.0367,4.0,7.611681812,88.79511747,9.58,'11111222,11111222,11111222' 
TABS,ioos:station:wmo:42046:1,2002-10-07T04:09:00Z,27.8903,-94.0367,4.0,7.593589402,99.47512534,9.47,'11111222,11111222,11111222' 
TABS,ioos:station:wmo:42046:1,2002-10-07T05:39:00Z,27.8903,-94.0367,4.0,7.975988967,105.1168959,9.92,'11111222,11111222,11111222' 
TABS,ioos:station:wmo:42046:1,2002-10-07T09:09:00Z,27.8903,-94.0367,4.0,6.95405637,126.639535,8.82,'11111222,11111222,11111222' 
TABS,ioos:station:wmo:42046:1,2002-10-07T10:39:00Z,27.8903,-94.0367,4.0,7.594537511,131.4772322,9.08,'11111222,11111222,11111222' 
TABS,ioos:station:wmo:42046:1,2002-10-07T11:09:00Z,27.8903,-94.0367,4.0,7.236711961,131.9757654,8.91,'11111222,11111222,11111222' 
TABS,ioos:station:wmo:42046:1,2002-10-07T11:39:00Z,27.8903,-94.0367,4.0,6.678457906,133.1800921,8.42,'11111222,11111222,11111222' 
TABS,ioos:station:wmo:42046:1,2002-10-07T12:39:00Z,27.8903,-94.0367,4.0,6.53404928,135.6203742,8.5,'11111222,11111222,11111222' 
TABS,ioos:station:wmo:42046:1,2002-10-07T13:09:00Z,27.8903,-94.0367,4.0,6.117720164,157.2074962,7.75,'11111222,11111222,11111222' 
TABS,ioos:station:wmo:42046:1,2002-10-07T16:09:00Z,27.8903,-94.0367,4.0,4.935139309,141.0866528,6.91,'11111222,11111222,11111222' 
TABS,ioos:station:wmo:42046:1,2002-10-07T16:39:00Z,27.8903,-94.0367,4.0,4.645696934,98.04329634,6.55,'11111222,11111222,11111222' 
TABS,ioos:station:wmo:42046:1,2002-10-07T17:09:00Z,27.8903,-94.0367,4.0,5.132640646,68.03238704,6.39,'11111222,11111222,11111222' 
TABS,ioos:station:wmo:42046:1,2002-10-07T18:09:00Z,27.8903,-94.0367,4.0,5.825684509,77.60947912,7.54,'11111222,11111222,11111222' 
TABS,ioos:station:wmo:42046:1,2002-10-07T18:39:00Z,27.8903,-94.0367,4.0,5.484851867,97.33273095,7.83,'11111222,11111222,11111222' 
TABS,ioos:station:wmo:42046:1,2002-10-07T19:09:00Z,27.8903,-94.0367,4.0,6.22299767,73.28273633,7.93,'11111222,11111222,11111222' 
TABS,ioos:station:wmo:42046:1,2002-10-07T19:39:00Z,27.8903,-94.0367,4.0,5.9905342,53.89493946,7.93,'11111222,11111222,11111222' 
TABS,ioos:station:wmo:42046:1,2002-10-07T22:39:00Z,27.8903,-94.0367,4.0,5.791312459,78.7478806,7.94,'11111222,11111222,11111222' 
TABS,ioos:station:wmo:42046:1,2002-10-07T23:09:00Z,27.8903,-94.0367,4.0,5.430082872,90.31696822,8.15,'11111222,11111222,11111222' 
TABS,ioos:station:wmo:42046:1,2002-10-07T23:39:00Z,27.8903,-94.0367,4.0,5.155288547,95.6778243,7.68,'11111222,11111222,11111222' 
TABS,ioos:station:wmo:42046:1,2002-10-08T00:39:00Z,27.8903,-94.0367,4.0,5.871848091,104.296957,8.35,'11111222,11111222,11111222' 
TABS,ioos:station:wmo:42046:1,2002-10-08T02:39:00Z,27.8903,-94.0367,4.0,6.328633344,120.3740894,8.42,'11111222,11111222,11111222' 
TABS,ioos:station:wmo:42046:1,2002-10-08T04:09:00Z,27.8903,-94.0367,4.0,7.877283796,112.0719125,9.67,'11111222,11111222,11111222' 
TABS,ioos:station:wmo:42046:1,2002-10-08T05:09:00Z,27.8903,-94.0367,4.0,7.091861533,104.369742,9.64,'11111222,11111222,11111222' 
TABS,ioos:station:wmo:42046:1,2002-10-08T07:09:00Z,27.8903,-94.0367,4.0,7.171980201,122.1835603,10.06,'11111222,11111222,11111222' 
TABS,ioos:station:wmo:42046:1,2002-10-08T11:39:00Z,27.8903,-94.0367,4.0,6.721971437,129.991427,9.51,'11111222,11111222,11111222' 
TABS,ioos:station:wmo:42046:1,2002-10-08T12:39:00Z,27.8903,-94.0367,4.0,6.894787887,140.2372919,9.99,'11111222,11111222,11111222' 
TABS,ioos:station:wmo:42046:1,2002-10-08T13:09:00Z,27.8903,-94.0367,4.0,6.630754105,137.2616156,9.42,'11111222,11111222,11111222' 
TABS,ioos:station:wmo:42046:1,2002-10-08T17:39:00Z,27.8903,-94.0367,4.0,6.91716705,146.080489,10.36,'11111222,11111222,11111222' 
TABS,ioos:station:wmo:42046:1,2002-10-08T18:39:00Z,27.8903,-94.0367,4.0,6.062936582,146.5723226,9.08,'11111222,11111222,11111222' 
TABS,ioos:station:wmo:42046:1,2002-10-08T19:39:00Z,27.8903,-94.0367,4.0,7.836861617,141.1121333,11.22,'11111222,11111222,11111222' 
TABS,ioos:station:wmo:42046:1,2002-10-08T20:09:00Z,27.8903,-94.0367,4.0,7.695518176,136.3692526,11.32,'11111222,11111222,11111222' 
TABS,ioos:station:wmo:42046:1,2002-10-08T20:39:00Z,27.8903,-94.0367,4.0,7.362200758,141.7294261,10.63,'11111222,11111222,11111222' 
TABS,ioos:station:wmo:42046:1,2002-10-08T22:09:00Z,27.8903,-94.0367,4.0,8.968790331,162.2117726,13.29,'11111222,11111222,11111222' 
TABS,ioos:station:wmo:42046:1,2002-10-08T22:39:00Z,27.8903,-94.0367,4.0,7.148657217,124.8019436,10.63,'11111222,11111222,11111222' 
TABS,ioos:station:wmo:42046:1,2002-10-09T00:39:00Z,27.8903,-94.0367,4.0,8.200201217,121.7909457,11.68,'11111222,11111222,11111222' 
TABS,ioos:station:wmo:42046:1,2002-10-09T01:39:00Z,27.8903,-94.0367,4.0,7.0843066,129.9612274,10.6,'11111222,11111222,11111222' 
TABS,ioos:station:wmo:42046:1,2002-10-09T02:09:00Z,27.8903,-94.0367,4.0,8.104344514,154.2572879,10.64,'11111222,11111222,11111222' 
TABS,ioos:station:wmo:42046:1,2002-10-09T02:39:00Z,27.8903,-94.0367,4.0,8.092823982,154.9234965,11.11,'11111222,11111222,11111222' 
TABS,ioos:station:wmo:42046:1,2002-10-09T09:39:00Z,27.8903,-94.0367,4.0,3.927594684,161.2885163,7.4,'11111222,11111222,11111222' 
TABS,ioos:station:wmo:42046:1,2002-10-09T10:09:00Z,27.8903,-94.0367,4.0,6.491132413,176.6441242,9.52,'11111222,11111222,11111222' 
TABS,ioos:station:wmo:42046:1,2002-10-09T12:39:00Z,27.8903,-94.0367,4.0,6.097384685,182.8203763,9.61,'11111222,11111222,11111222' 
TABS,ioos:station:wmo:42046:1,2002-10-09T14:09:00Z,27.8903,-94.0367,4.0,7.695245285,196.4569411,17.72,'11111222,11111222,11111222' 
TABS,ioos:station:wmo:42046:1,2002-10-09T15:09:00Z,27.8903,-94.0367,4.0,7.357404434,182.5709416,10.59,'11111222,11111222,11111222' 
TABS,ioos:station:wmo:42046:1,2002-10-09T15:39:00Z,27.8903,-94.0367,4.0,9.107798856,191.6555641,13.64,'11111222,11111222,11111222' 
TABS,ioos:station:wmo:42046:1,2002-10-09T17:09:00Z,27.8903,-94.0367,4.0,5.318956665,187.7799127,8.27,'11111222,11111222,11111222' 
TABS,ioos:station:wmo:42046:1,2002-10-09T20:09:00Z,27.8903,-94.0367,4.0,9.778778042,311.974049,15.38,'11111222,11111222,11111222' 
TABS,ioos:station:wmo:42046:1,2002-10-09T21:39:00Z,27.8903,-94.0367,4.0,2.020816667,293.0123912,6.58,'11111222,11111222,11111222' 
TABS,ioos:station:wmo:42046:1,2002-10-09T22:09:00Z,27.8903,-94.0367,4.0,2.03002463,67.09752475,5.28,'11111222,11111222,11111222' 
TABS,ioos:station:wmo:42046:1,2002-10-09T23:09:00Z,27.8903,-94.0367,4.0,4.862016043,91.65045645,7.15,'11111222,11111222,11111222' 
TABS,ioos:station:wmo:42046:1,2002-10-09T23:39:00Z,27.8903,-94.0367,4.0,5.696218044,109.4850461,9.74,'11111222,11111222,11111222' 
TABS,ioos:station:wmo:42046:1,2002-10-10T02:39:00Z,27.8903,-94.0367,4.0,7.441861326,184.3930006,9.94,'11111222,11111222,11111222' 
TABS,ioos:station:wmo:42046:1,2002-10-10T03:39:00Z,27.8903,-94.0367,4.0,4.460011211,179.8717451,6.44,'11111222,11111222,11111222' 
TABS,ioos:station:wmo:42046:1,2002-10-10T04:09:00Z,27.8903,-94.0367,4.0,2.319353358,112.0311443,5.16,'11111222,11111222,11111222' 
TABS,ioos:station:wmo:42046:1,2002-10-10T05:09:00Z,27.8903,-94.0367,4.0,3.211230294,39.43975005,7.4,'11111222,11111222,11111222' 
TABS,ioos:station:wmo:42046:1,2002-10-10T05:39:00Z,27.8903,-94.0367,4.0,2.712286858,48.13807848,4.39,'11111222,11111222,11111222' 
TABS,ioos:station:wmo:42046:1,2002-10-10T06:39:00Z,27.8903,-94.0367,4.0,1.964128305,28.2609649,4.34,'11111222,11111222,11111222' 
TABS,ioos:station:wmo:42046:1,2002-10-10T07:09:00Z,27.8903,-94.0367,4.0,3.418917957,74.21535685,5.1,'11111222,11111222,11111222' 
TABS,ioos:station:wmo:42046:1,2002-10-10T08:09:00Z,27.8903,-94.0367,4.0,3.661038104,56.1359677,5.29,'11111222,11111222,11111222' 
TABS,ioos:station:wmo:42046:1,2002-10-10T08:39:00Z,27.8903,-94.0367,4.0,3.357260788,54.70005357,4.69,'11111222,11111222,11111222' 
TABS,ioos:station:wmo:42046:1,2002-10-10T09:39:00Z,27.8903,-94.0367,4.0,3.563158711,87.58686384,5.52,'11111222,11111222,11111222' 
TABS,ioos:station:wmo:42046:1,2002-10-10T10:09:00Z,27.8903,-94.0367,4.0,3.032045514,75.09254169,4.34,'11111222,11111222,11111222' 
TABS,ioos:station:wmo:42046:1,2002-10-10T10:39:00Z,27.8903,-94.0367,4.0,1.913765921,70.14441114,3.77,'11111222,11111222,11111222' 
TABS,ioos:station:wmo:42046:1,2002-10-10T11:09:00Z,27.8903,-94.0367,4.0,2.094612136,78.15321265,3.7,'11111222,11111222,11111222' 
TABS,ioos:station:wmo:42046:1,2002-10-10T11:39:00Z,27.8903,-94.0367,4.0,2.77540988,79.62089836,4.17,'11111222,11111222,11111222' 
TABS,ioos:station:wmo:42046:1,2002-10-10T13:09:00Z,27.8903,-94.0367,4.0,2.719356542,115.7173456,3.98,'11111222,11111222,11111222' 
TABS,ioos:station:wmo:42046:1,2002-10-10T15:09:00Z,27.8903,-94.0367,4.0,1.275656694,84.60184293,3.56,'11111222,11111222,11111222' 
TABS,ioos:station:wmo:42046:1,2002-10-10T16:39:00Z,27.8903,-94.0367,4.0,0.41,90.00042092,2.76,'11111222,11111222,11111222' 
TABS,ioos:station:wmo:42046:1,2002-10-10T17:09:00Z,27.8903,-94.0367,4.0,1.163615057,24.36218559,3.88,'11111222,11111222,11111222' 
TABS,ioos:station:wmo:42046:1,2002-10-10T17:39:00Z,27.8903,-94.0367,4.0,2.136000936,216.8163743,3.86,'11111222,11111222,11111222' 
TABS,ioos:station:wmo:42046:1,2002-10-10T18:39:00Z,27.8903,-94.0367,4.0,6.066242659,20.55578669,8.65,'11111222,11111222,11111222' 
TABS,ioos:station:wmo:42046:1,2002-10-10T21:09:00Z,27.8903,-94.0367,4.0,5.430893113,14.82923446,7.95,'11111222,11111222,11111222' 
TABS,ioos:station:wmo:42046:1,2002-10-10T23:09:00Z,27.8903,-94.0367,4.0,6.107519955,21.81856843,8.67,'11111222,11111222,11111222' 
TABS,ioos:station:wmo:42046:1,2002-10-11T00:09:00Z,27.8903,-94.0367,4.0,6.334319222,20.32287885,8.58,'11111222,11111222,11111222' 
TABS,ioos:station:wmo:42046:1,2002-10-11T00:39:00Z,27.8903,-94.0367,4.0,6.489021498,18.60222591,10.31,'11111222,11111222,11111222' 
TABS,ioos:station:wmo:42046:1,2002-10-11T01:09:00Z,27.8903,-94.0367,4.0,6.289077834,24.11947523,8.93,'11111222,11111222,11111222' 
TABS,ioos:station:wmo:42046:1,2002-10-11T02:39:00Z,27.8903,-94.0367,4.0,6.947647084,28.07706187,9.56,'11111222,11111222,11111222' 
TABS,ioos:station:wmo:42046:1,2002-10-11T03:09:00Z,27.8903,-94.0367,4.0,7.279739006,18.83292096,9.75,'11111222,11111222,11111222' 
TABS,ioos:station:wmo:42046:1,2002-10-11T05:09:00Z,27.8903,-94.0367,4.0,7.086134348,21.78613346,9.98,'11111222,11111222,11111222' 
TABS,ioos:station:wmo:42046:1,2002-10-11T05:39:00Z,27.8903,-94.0367,4.0,6.719598202,31.48991195,9.16,'11111222,11111222,11111222' 
TABS,ioos:station:wmo:42046:1,2002-10-11T06:09:00Z,27.8903,-94.0367,4.0,7.909721866,17.58712059,10.91,'11111222,11111222,11111222' 
TABS,ioos:station:wmo:42046:1,2002-10-11T07:09:00Z,27.8903,-94.0367,4.0,6.589848253,16.75728969,9.0,'11111222,11111222,11111222' 
TABS,ioos:station:wmo:42046:1,2002-10-11T07:39:00Z,27.8903,-94.0367,4.0,7.189248918,22.74834186,9.91,'11111222,11111222,11111222' 
TABS,ioos:station:wmo:42046:1,2002-10-11T08:39:00Z,27.8903,-94.0367,4.0,6.150650372,18.287406,9.31,'11111222,11111222,11111222' 
TABS,ioos:station:wmo:42046:1,2002-10-11T09:09:00Z,27.8903,-94.0367,4.0,6.222057538,24.09311962,8.91,'11111222,11111222,11111222' 
TABS,ioos:station:wmo:42046:1,2002-10-11T12:09:00Z,27.8903,-94.0367,4.0,6.587844868,15.76595052,9.72,'11111222,11111222,11111222' 
TABS,ioos:station:wmo:42046:1,2002-10-11T12:39:00Z,27.8903,-94.0367,4.0,6.696581217,10.23573779,9.73,'11111222,11111222,11111222' 
TABS,ioos:station:wmo:42046:1,2002-10-11T13:39:00Z,27.8903,-94.0367,4.0,6.587844868,15.76595052,9.04,'11111222,11111222,11111222' 
TABS,ioos:station:wmo:42046:1,2002-10-11T14:09:00Z,27.8903,-94.0367,4.0,6.64939095,23.01729751,9.04,'11111222,11111222,11111222' 